Date String (YYYY-MM-DD hh:mm:ss) UTC,Instrument flags,Ambient pressure (hPa),Sample flow (lpm),Bypass flow (lpm),Sample temperature (°C),Ambient temperature (°C),ASC tube jacket temperature (°C),LED temperature (°C),Box temperature (°C),Sample RH (%),Span deviation,Mass concentration (μg/m³),Mass concentration (μg/m³),Mass concentration (μg/m³)
DateTimeUTC,F1_M11,P_M11,Q1_M11,Q2_M11,T1_M11,T2_M11,T3_M11,T4_M11,T5_M11,U1_M11,ZSPAN_M11,X0_M11,X2_M11,X1_M11
2022-05-11 01:00:00,,0822.6,4.99,0.00,29.6,28.2,00.0,38.5,31.4,11.6,0000.0,0023.57,0005.19,0002.00
2022-05-11 01:01:00,,0822.6,5.00,0.00,29.6,28.4,00.0,38.5,31.4,11.6,0000.0,0024.54,0005.10,0002.00
2022-05-11 01:02:00,,0822.5,5.01,0.00,29.6,28.5,00.0,38.5,31.4,11.6,0000.0,0024.46,0005.03,0001.99
2022-05-11 01:03:00,,0822.5,5.00,0.00,29.6,28.6,00.0,38.5,31.5,11.7,0000.0,0022.72,0004.97,0001.96
2022-05-11 01:04:00,,0822.5,5.01,0.00,29.7,28.6,00.0,38.5,31.5,11.6,0000.0,0022.43,0005.00,0001.96
2022-05-11 01:05:00,,0822.5,5.00,0.00,29.7,28.7,00.0,38.5,31.5,11.6,0000.0,0023.00,0005.02,0001.95
2022-05-11 01:06:00,,0822.5,5.00,0.00,29.7,28.8,00.0,38.5,31.5,11.7,0000.0,0023.09,0004.94,0001.95
2022-05-11 01:07:00,,0822.5,5.00,0.00,29.7,28.8,00.0,38.5,31.6,11.6,0000.0,0023.22,0004.90,0001.97
2022-05-11 01:08:00,,0822.6,4.99,0.00,29.7,28.9,00.0,38.5,31.6,11.7,0000.0,0023.70,0004.89,0001.97
2022-05-11 01:09:00,,0822.7,5.00,0.00,29.7,28.9,00.0,38.6,31.6,11.6,0000.0,0025.85,0004.89,0001.97
2022-05-11 01:10:00,,0822.7,5.00,0.00,29.8,28.9,00.0,38.6,31.6,11.7,0000.0,0025.54,0004.96,0001.96
2022-05-11 01:11:00,,0822.7,5.00,0.00,29.8,29.0,00.0,38.6,31.6,11.6,0000.0,0024.69,0004.98,0001.93
2022-05-11 01:12:00,,0822.7,5.01,0.00,29.8,29.0,00.0,38.6,31.7,11.5,0000.0,0024.18,0004.98,0001.92
2022-05-11 01:13:00,,0822.6,5.01,0.00,29.8,29.0,00.0,38.6,31.7,11.4,0000.0,0024.63,0004.95,0001.92
2022-05-11 01:14:00,,0822.7,4.99,0.00,29.8,29.1,00.0,38.6,31.7,11.4,0000.0,0025.41,0004.95,0001.91
2022-05-11 01:15:00,,0822.7,5.00,0.00,29.8,29.1,00.0,38.6,31.7,11.4,0000.0,0026.10,0004.91,0001.93
2022-05-11 01:16:00,,0822.7,5.00,0.00,29.8,29.1,00.0,38.7,31.7,11.4,0000.0,0025.83,0004.88,0001.93
2022-05-11 01:17:00,,0822.7,4.99,0.00,29.9,29.1,00.0,38.7,31.7,11.4,0000.0,0025.03,0004.87,0001.92
2022-05-11 01:18:00,,0822.7,5.01,0.00,29.9,29.1,00.0,38.7,31.7,11.4,0000.0,0023.67,0004.90,0001.89
2022-05-11 01:19:00,,0822.7,5.00,0.00,29.9,29.2,00.0,38.7,31.8,11.6,0000.0,0023.42,0004.90,0001.87
2022-05-11 01:20:00,,0822.7,5.00,0.00,29.9,28.6,00.0,38.7,31.6,11.7,0000.0,0023.11,0004.91,0001.87
2022-05-11 01:21:00,,0822.7,5.00,0.00,29.8,26.4,00.0,38.7,31.1,11.8,0000.0,0023.84,0004.91,0001.87
2022-05-11 01:22:00,,0822.7,5.01,0.00,29.7,25.9,00.0,38.7,31.0,11.8,0000.0,0023.72,0004.86,0001.86
2022-05-11 01:23:00,,0822.7,4.99,0.00,29.6,26.3,00.0,38.6,31.1,11.9,0000.0,0024.16,0004.91,0001.84
2022-05-11 01:24:00,,0822.7,5.00,0.00,29.6,26.7,00.0,38.6,31.2,11.9,0000.0,0024.72,0004.97,0001.84
2022-05-11 01:25:00,,0822.7,4.99,0.00,29.6,27.1,00.0,38.6,31.2,11.9,0000.0,0024.96,0005.06,0001.83
2022-05-11 01:26:00,,0822.7,5.01,0.00,29.6,27.5,00.0,38.5,31.3,11.9,0000.0,0024.27,0005.02,0001.79
2022-05-11 01:27:00,,0822.7,4.99,0.00,29.6,27.8,00.0,38.5,31.3,11.8,0000.0,0023.87,0004.97,0001.77
2022-05-11 01:28:00,,0822.7,5.01,0.00,29.6,28.0,00.0,38.5,31.4,11.7,0000.0,0023.99,0004.99,0001.76
2022-05-11 01:29:00,,0822.7,4.99,0.00,29.6,28.2,00.0,38.5,31.4,11.6,0000.0,0024.05,0005.01,0001.74
2022-05-11 01:30:00,,0822.7,5.00,0.00,29.6,28.4,00.0,38.5,31.4,11.6,0000.0,0024.09,0005.04,0001.74
2022-05-11 01:31:00,,0822.7,5.01,0.00,29.6,28.5,00.0,38.5,31.5,11.8,0000.0,0022.96,0004.99,0001.73
2022-05-11 01:32:00,,0822.7,5.01,0.00,29.7,28.6,00.0,38.5,31.5,11.9,0000.0,0020.87,0004.94,0001.72
2022-05-11 01:33:00,,0822.8,5.00,0.00,29.7,28.7,00.0,38.5,31.5,11.8,0000.0,0020.16,0005.01,0001.73
2022-05-11 01:34:00,,0822.7,5.00,0.00,29.7,28.8,00.0,38.6,31.6,11.9,0000.0,0019.40,0005.06,0001.74
2022-05-11 01:35:00,,0822.9,4.99,0.00,29.7,28.9,00.0,38.6,31.6,12.0,0000.0,0019.45,0004.99,0001.73
2022-05-11 01:36:00,,0822.7,5.00,0.00,29.8,28.9,00.0,38.6,31.6,11.8,0000.0,0019.73,0004.95,0001.72
2022-05-11 01:37:00,,0822.7,5.00,0.00,29.8,28.9,00.0,38.6,31.7,11.6,0000.0,0020.01,0004.94,0001.73
2022-05-11 01:38:00,,0822.7,5.00,0.00,29.8,29.0,00.0,38.6,31.7,11.6,0000.0,0020.82,0004.95,0001.74
2022-05-11 01:39:00,,0822.7,5.00,0.00,29.8,29.0,00.0,38.6,31.7,11.6,0000.0,0021.97,0004.94,0001.72
2022-05-11 01:40:00,,0822.8,5.01,0.00,29.8,29.0,00.0,38.6,31.7,11.6,0000.0,0023.14,0004.94,0001.72
2022-05-11 01:41:00,,0822.7,5.00,0.00,29.9,29.0,00.0,38.7,31.7,11.5,0000.0,0022.00,0004.80,0001.72
2022-05-11 01:42:00,,0822.7,4.99,0.00,29.9,29.1,00.0,38.7,31.7,11.4,0000.0,0022.61,0004.77,0001.73
2022-05-11 01:43:00,,0822.9,5.01,0.00,29.9,29.1,00.0,38.7,31.8,11.4,0000.0,0023.89,0004.75,0001.71
2022-05-11 01:44:00,,0822.7,5.00,0.00,29.9,29.1,00.0,38.7,31.8,11.5,0000.0,0024.26,0004.70,0001.71
2022-05-11 01:45:00,,0822.8,5.00,0.00,29.9,29.2,00.0,38.7,31.8,11.5,0000.0,0024.92,0004.63,0001.71
2022-05-11 01:46:00,,0822.7,5.01,0.00,29.9,29.2,00.0,38.7,31.8,11.6,0000.0,0024.95,0004.66,0001.72
2022-05-11 01:47:00,,0822.7,4.99,0.00,29.9,28.9,00.0,38.8,31.7,11.6,0000.0,0024.27,0004.66,0001.73
2022-05-11 01:48:00,,0822.7,5.01,0.00,29.9,26.8,00.0,38.7,31.2,11.6,0000.0,0023.41,0004.65,0001.75
2022-05-11 01:49:00,,0822.7,5.01,0.00,29.7,25.9,00.0,38.7,31.1,11.7,0000.0,0023.48,0004.65,0001.76
2022-05-11 01:50:00,,0822.8,5.00,0.00,29.7,26.2,00.0,38.6,31.1,11.8,0000.0,0022.42,0004.63,0001.79
2022-05-11 01:51:00,,0822.8,4.99,0.00,29.6,26.6,00.0,38.6,31.2,11.9,0000.0,0021.30,0004.68,0001.81
2022-05-11 01:52:00,,0822.9,5.01,0.00,29.6,27.0,00.0,38.6,31.2,12.0,0000.0,0022.07,0004.79,0001.81
2022-05-11 01:53:00,,0822.7,5.00,0.00,29.6,27.4,00.0,38.6,31.3,12.0,0000.0,0021.66,0004.83,0001.82
2022-05-11 01:54:00,,0822.7,4.99,0.00,29.6,27.7,00.0,38.6,31.4,12.0,0000.0,0020.40,0004.81,0001.83
2022-05-11 01:55:00,,0822.7,5.01,0.00,29.6,28.0,00.0,38.6,31.4,11.8,0000.0,0020.77,0004.85,0001.85
2022-05-11 01:56:00,,0822.7,5.00,0.00,29.7,28.2,00.0,38.6,31.5,11.6,0000.0,0019.99,0004.85,0001.87
2022-05-11 01:57:00,,0822.8,5.00,0.00,29.7,28.3,00.0,38.6,31.4,11.9,0000.0,0019.80,0004.85,0001.88
2022-05-11 01:58:00,,0822.9,5.00,0.00,29.7,28.5,00.0,38.6,31.4,12.1,0000.0,0020.54,0004.82,0001.87
2022-05-11 01:59:00,,0822.9,4.98,0.00,29.7,28.5,00.0,38.6,31.5,12.1,0000.0,0020.81,0004.87,0001.87
